Weather History for KORS - December, 2013

Change the Weather History Date:

Monday, December 9, 2013

  Actual Average (KBLI) Record (KBLI)
Temperature  
Mean Temperature 32 °F 38 °F  
Max Temperature 33 °F 45 °F 63 °F (2014)
Min Temperature 32 °F 32 °F 11 °F (1972)
Degree Days  
Heating Degree Days 32 27  
Month to date heating degree days 233  
Cooling Degree Days 0 0  
Month to date cooling degree days 0  
Year to date cooling degree days 42  
Moisture  
Dew Point 23 °F    
Average Humidity 70    
Maximum Humidity 81    
Minimum Humidity 60    
Precipitation  
Precipitation 0.00 in 0.14 in 1.13 in (1956)
Month to date precipitation 1.42  
Year to date precipitation 33.03  
Sea Level Pressure  
Sea Level Pressure 30.51 in    
Wind  
Wind Speed 6 mph (South)    
Max Wind Speed 13 mph    
Max Gust Speed 16 mph    
Visibility 10 miles    
Events      
T = Trace of Precipitation, MM = Missing Value Source: NWS Daily Summary

Daily Weather History Graph

Daily Weather History Graph

Search for Another Location

Airport or City:

Trip Planner

Search our weather history database for the weather conditions in past years. The results will help you decide how hot, cold, wet, or windy it might be!

Date:

Astronomy

Dec. 09, 2013 Rise Set
Actual Time 7:52 AM PST 4:15 PM PST
Civil Twilight 7:15 AM PST 4:52 PM PST
Nautical Twilight 6:35 AM PST 5:32 PM PST
Astronomical Twilight 5:57 AM PST 6:10 PM PST
Moon 12:18 PM PST (12/9) No Moon Set
Length of Visible Light 9h 36m
Length of Day
8h 22m
First Quarter, 52% of the Moon is Illuminated
Dec 9
First Quarter
Dec 17
Full
Dec 25
Last Quarter
Jan 1
New
Jan 7
First Quarter

Hourly Weather History & Observations

Time (PST) Temp. Windchill Dew Point Humidity Pressure Visibility Wind Dir Wind Speed Gust Speed Precip Events Conditions
12:15 AM 32.0 °F - 23.0 °F 69% 30.55 in 10.0 mi North - - N/A   Overcast
12:35 AM 32.0 °F 28.7 °F 23.0 °F 69% 30.55 in 10.0 mi South 3.5 mph - N/A   Overcast
12:55 AM 32.0 °F 28.7 °F 23.0 °F 69% 30.55 in 10.0 mi South 3.5 mph - N/A   Overcast
1:15 AM 32.0 °F 28.7 °F 21.2 °F 64% 30.55 in 10.0 mi SSE 3.5 mph - N/A   Overcast
1:35 AM 32.0 °F 26.4 °F 21.2 °F 64% 30.55 in 10.0 mi South 5.8 mph - N/A   Overcast
1:55 AM 32.0 °F 24.8 °F 21.2 °F 64% 30.55 in 10.0 mi SSW 8.1 mph - N/A   Overcast
2:15 AM 32.0 °F 27.5 °F 21.2 °F 64% 30.54 in 10.0 mi South 4.6 mph - N/A   Overcast
2:35 AM 32.0 °F 25.6 °F 21.2 °F 64% 30.54 in 10.0 mi South 6.9 mph - N/A   Overcast
2:55 AM 32.0 °F 24.8 °F 21.2 °F 64% 30.53 in 10.0 mi South 8.1 mph - N/A   Mostly Cloudy
3:15 AM 32.0 °F 25.6 °F 21.2 °F 64% 30.52 in 10.0 mi South 6.9 mph - N/A   Overcast
3:35 AM 32.0 °F 23.6 °F 19.4 °F 60% 30.52 in 10.0 mi South 10.4 mph - N/A   Overcast
3:55 AM 32.0 °F 24.8 °F 21.2 °F 64% 30.52 in 10.0 mi South 8.1 mph - N/A   Overcast
4:15 AM 32.0 °F 26.4 °F 19.4 °F 60% 30.53 in 10.0 mi South 5.8 mph - N/A   Overcast
4:35 AM 32.0 °F 25.6 °F 19.4 °F 60% 30.52 in 10.0 mi South 6.9 mph - N/A   Mostly Cloudy
4:55 AM 32.0 °F 26.4 °F 19.4 °F 60% 30.52 in 10.0 mi South 5.8 mph - N/A   Mostly Cloudy
5:15 AM 32.0 °F 25.6 °F 19.4 °F 60% 30.52 in 10.0 mi South 6.9 mph - N/A   Mostly Cloudy
5:35 AM 32.0 °F 25.6 °F 19.4 °F 60% 30.52 in 10.0 mi South 6.9 mph - N/A   Mostly Cloudy
5:55 AM 32.0 °F 25.6 °F 19.4 °F 60% 30.52 in 10.0 mi South 6.9 mph - N/A   Overcast
6:15 AM 32.0 °F 25.6 °F 19.4 °F 60% 30.53 in 10.0 mi South 6.9 mph - N/A   Overcast
6:35 AM 32.0 °F 25.6 °F 19.4 °F 60% 30.52 in 10.0 mi South 6.9 mph - N/A   Mostly Cloudy
6:55 AM 32.0 °F 24.8 °F 19.4 °F 60% 30.53 in 10.0 mi South 8.1 mph - N/A   Overcast
7:15 AM 32.0 °F 24.8 °F 19.4 °F 60% 30.53 in 10.0 mi South 8.1 mph - N/A   Overcast
7:35 AM 32.0 °F 25.6 °F 19.4 °F 60% 30.52 in 10.0 mi South 6.9 mph - N/A   Overcast
7:55 AM 32.0 °F 24.8 °F 21.2 °F 64% 30.52 in 10.0 mi South 8.1 mph - N/A   Overcast
8:15 AM 32.0 °F 25.6 °F 21.2 °F 64% 30.52 in 10.0 mi South 6.9 mph - N/A   Overcast
8:35 AM 32.0 °F 26.4 °F 23.0 °F 69% 30.53 in 10.0 mi South 5.8 mph - N/A   Overcast
8:55 AM 32.0 °F 26.4 °F 23.0 °F 69% 30.53 in 10.0 mi South 5.8 mph - N/A   Overcast
9:15 AM 32.0 °F 24.8 °F 23.0 °F 69% 30.54 in 10.0 mi South 8.1 mph - N/A   Overcast
9:35 AM 32.0 °F 26.4 °F 23.0 °F 69% 30.54 in 10.0 mi South 5.8 mph - N/A   Overcast
9:55 AM 32.0 °F 25.6 °F 23.0 °F 69% 30.54 in 10.0 mi South 6.9 mph - N/A   Overcast
10:15 AM 32.0 °F 24.8 °F 23.0 °F 69% 30.54 in 10.0 mi South 8.1 mph - N/A   Overcast
10:35 AM 32.0 °F 24.8 °F 24.8 °F 75% 30.54 in 10.0 mi South 8.1 mph - N/A   Overcast
10:55 AM 32.0 °F 26.4 °F 24.8 °F 75% 30.54 in 10.0 mi South 5.8 mph - N/A   Overcast
11:15 AM 32.0 °F 26.4 °F 24.8 °F 75% 30.53 in 10.0 mi South 5.8 mph - N/A   Overcast
11:35 AM 32.0 °F 25.6 °F 24.8 °F 75% 30.53 in 10.0 mi South 6.9 mph - N/A   Mostly Cloudy
11:55 AM 32.0 °F 26.4 °F 24.8 °F 75% 30.53 in 10.0 mi South 5.8 mph - N/A   Mostly Cloudy
12:15 PM 32.0 °F 24.8 °F 24.8 °F 75% 30.53 in 10.0 mi South 8.1 mph - N/A   Mostly Cloudy
12:35 PM 32.0 °F 25.6 °F 24.8 °F 75% 30.53 in 10.0 mi South 6.9 mph - N/A   Mostly Cloudy
12:55 PM 32.0 °F 27.5 °F 24.8 °F 75% 30.53 in 10.0 mi South 4.6 mph - N/A   Mostly Cloudy
1:15 PM 32.0 °F 25.6 °F 24.8 °F 75% 30.52 in 10.0 mi South 6.9 mph - N/A   Mostly Cloudy
1:35 PM 32.0 °F 26.4 °F 24.8 °F 75% 30.52 in 10.0 mi South 5.8 mph - N/A   Mostly Cloudy
1:55 PM 32.0 °F 26.4 °F 24.8 °F 75% 30.51 in 10.0 mi South 5.8 mph - N/A   Mostly Cloudy
2:15 PM 32.0 °F 25.6 °F 24.8 °F 75% 30.51 in 10.0 mi South 6.9 mph - N/A   Overcast
2:35 PM 32.0 °F 26.4 °F 24.8 °F 75% 30.51 in 10.0 mi South 5.8 mph - N/A   Overcast
2:55 PM 32.0 °F 25.6 °F 23.0 °F 69% 30.51 in 10.0 mi South 6.9 mph - N/A   Overcast
3:15 PM 32.0 °F 25.6 °F 23.0 °F 69% 30.51 in 10.0 mi South 6.9 mph - N/A   Overcast
3:35 PM 32.0 °F 24.2 °F 23.0 °F 69% 30.51 in 10.0 mi South 9.2 mph - N/A   Mostly Cloudy
3:55 PM 32.0 °F 24.8 °F 23.0 °F 69% 30.51 in 10.0 mi South 8.1 mph - N/A   Overcast
4:15 PM 32.0 °F 26.4 °F 23.0 °F 69% 30.51 in 10.0 mi South 5.8 mph - N/A   Overcast
4:35 PM 32.0 °F 24.8 °F 23.0 °F 69% 30.50 in 10.0 mi South 8.1 mph - N/A   Mostly Cloudy
4:55 PM 32.0 °F 27.5 °F 23.0 °F 69% 30.49 in 10.0 mi South 4.6 mph - N/A   Scattered Clouds
5:15 PM 32.0 °F 25.6 °F 23.0 °F 69% 30.49 in 10.0 mi South 6.9 mph - N/A   Mostly Cloudy
5:35 PM 32.0 °F 27.5 °F 23.0 °F 69% 30.49 in 10.0 mi South 4.6 mph - N/A   Overcast
5:55 PM 32.0 °F 26.4 °F 23.0 °F 69% 30.48 in 10.0 mi South 5.8 mph - N/A   Overcast
6:15 PM 32.0 °F 26.4 °F 23.0 °F 69% 30.48 in 10.0 mi South 5.8 mph - N/A   Overcast
6:35 PM 32.0 °F 26.4 °F 23.0 °F 69% 30.48 in 10.0 mi South 5.8 mph - N/A   Overcast
6:55 PM 32.0 °F 26.4 °F 24.8 °F 75% 30.47 in 10.0 mi South 5.8 mph - N/A   Overcast
7:15 PM 32.0 °F 25.6 °F 24.8 °F 75% 30.48 in 10.0 mi South 6.9 mph - N/A   Overcast
7:35 PM 32.0 °F 26.4 °F 26.6 °F 80% 30.48 in 10.0 mi South 5.8 mph - N/A   Overcast
7:55 PM 33.8 °F 28.6 °F 26.6 °F 75% 30.47 in 10.0 mi South 5.8 mph - N/A   Overcast
8:15 PM 33.8 °F 27.7 °F 26.6 °F 75% 30.47 in 10.0 mi South 6.9 mph - N/A   Overcast
8:35 PM 33.8 °F 27.7 °F 26.6 °F 75% 30.47 in 10.0 mi South 6.9 mph - N/A   Overcast
8:55 PM 33.8 °F 28.6 °F 26.6 °F 75% 30.47 in 10.0 mi South 5.8 mph - N/A   Overcast
9:15 PM 33.8 °F 28.6 °F 26.6 °F 75% 30.47 in 10.0 mi SSE 5.8 mph - N/A   Overcast
9:35 PM 33.8 °F 27.7 °F 26.6 °F 75% 30.47 in 10.0 mi South 6.9 mph - N/A   Overcast
9:55 PM 33.8 °F 29.6 °F 28.4 °F 81% 30.46 in 10.0 mi South 4.6 mph - N/A   Overcast
10:15 PM 33.8 °F 28.6 °F 28.4 °F 81% 30.46 in 10.0 mi South 5.8 mph - N/A   Overcast
10:35 PM 33.8 °F 27.0 °F 28.4 °F 81% 30.46 in 10.0 mi South 8.1 mph - N/A   Overcast
10:55 PM 33.8 °F 24.8 °F 28.4 °F 81% 30.46 in 10.0 mi South 12.7 mph 16.1 mph N/A   Mostly Cloudy
11:15 PM 33.8 °F 27.0 °F 28.4 °F 81% 30.46 in 10.0 mi South 8.1 mph - N/A   Overcast
11:35 PM 33.8 °F 26.4 °F 28.4 °F 81% 30.46 in 10.0 mi South 9.2 mph - N/A   Overcast
11:55 PM 33.8 °F 27.0 °F 28.4 °F 81% 30.45 in 10.0 mi South 8.1 mph - N/A   Mostly Cloudy